Weather History for Pian Rosa, Italy

Change the Weather History Date:

Monday, March 4, 2013

  Actual Average Record
Temperature  
Mean Temperature 17 °F -  
Max Temperature 19 °F 19 °F 28 °F (2007)
Min Temperature 15 °F 8 °F -5 °F (2005)
Degree Days  
Heating Degree Days 48    
Moisture  
Dew Point -5 °F    
Average Humidity 36    
Maximum Humidity 68    
Minimum Humidity 10    
Precipitation  
Precipitation 0.00 in - - ()
Sea Level Pressure  
Sea Level Pressure 30.01 in    
Wind  
Wind Speed 9 mph ()    
Max Wind Speed 32 mph    
Max Gust Speed -    
Visibility 10.7 miles    
Events      
Averages and records for this station are not official NWS values.
T = Trace of Precipitation, MM = Missing Value Source: Averaged Metar Reports

Daily Weather History Graph

Daily Weather History Graph

Search for Another Location

Airport:

Trip Planner

Search our weather history database for the weather conditions in past years. The results will help you decide how hot, cold, wet, or windy it might be!

Date:

Astronomy

Mar. 04, 2013 Rise Set
Actual Time 7:02 AM CET 6:19 PM CET
Civil Twilight 6:32 AM CET 6:49 PM CET
Nautical Twilight 5:58 AM CET 7:24 PM CET
Astronomical Twilight 5:23 AM CET 7:59 PM CET
Moon 1:07 AM CET (3/4) 10:33 AM CET (3/4)
Length of Visible Light 12h 17m
Length of Day
11h 17m
Waning Gibbous, 55% of the Moon is Illuminated
Mar 4
Waning Gibbous
Mar 4
Last Quarter
Mar 11
New
Mar 19
First Quarter
Mar 27
Full

Hourly Weather History & Observations

Time (CET) Temp. Windchill Dew Point Humidity Pressure Visibility Wind Dir Wind Speed Gust Speed Precip Events Conditions
12:55 AM 17.6 °F 9.3 °F -14.8 °F 23% 30.01 in - SSE 5.8 mph - N/A   Clear
1:55 AM 17.6 °F 8.2 °F -11.2 °F 27% 30.01 in - ESE 6.9 mph - N/A   Clear
2:55 AM 17.6 °F - -14.8 °F 23% 30.01 in - Calm Calm - N/A   Clear
3:55 AM 17.6 °F 12.3 °F -14.8 °F 23% 30.01 in - Variable 3.5 mph - N/A   Clear
4:00 AM 17 °F - -16 °F 10%  in 6 mi 3.5 mph - -  
4:55 AM 15.8 °F 8.6 °F -14.8 °F 25% 29.98 in - WSW 4.6 mph - N/A   Clear
5:55 AM 15.8 °F - -9.4 °F 32% 29.98 in - Variable 1.2 mph - N/A   Clear
6:55 AM 15.8 °F 7.2 °F -9.4 °F 32% 29.98 in - SSW 5.8 mph - N/A   Clear
7:00 AM 15 °F - -10 °F 18%  in 12 mi SSW 5.8 mph - -  
7:55 AM 15.8 °F 5.1 °F -9.4 °F 32% 29.98 in - SSW 8.1 mph - N/A   Clear
8:55 AM 15.8 °F 5.1 °F -7.6 °F 35% 30.01 in - SW 8.1 mph - N/A   Clear
9:55 AM 19.4 °F 7.9 °F -7.6 °F 30% 30.01 in - South 10.4 mph - N/A   Clear
10:55 AM 19.4 °F 11.5 °F -4.0 °F 36% 30.04 in - WSW 5.8 mph - N/A   Clear
11:55 AM 19.4 °F 8.6 °F -0.4 °F 42% 30.04 in - SSW 9.2 mph - N/A   Clear
12:55 PM 19.4 °F 7.9 °F 3.2 °F 49% 30.04 in - South 10.4 mph - N/A   Clear
1:00 PM 19 °F - 4 °F 36%  in 37 mi South 10.4 mph - -  
1:55 PM 17.6 °F 5.0 °F 5.0 °F 58% 30.01 in - ESE 11.5 mph - N/A   Clear
2:55 PM 17.6 °F 4.3 °F 5.0 °F 58% 30.01 in - South 12.7 mph - N/A   Clear
3:55 PM 17.6 °F 5.0 °F 8.6 °F 68% 30.01 in - SSW 11.5 mph - N/A   Clear
4:00 PM 17 °F - 8 °F 55%  in 31 mi SSW 11.5 mph - -  
4:55 PM 17.6 °F 3.2 °F 8.6 °F 68% 30.01 in - South 15.0 mph - N/A   Clear
5:55 PM 19.4 °F 1.8 °F -2.2 °F 39% 30.01 in - SE 25.3 mph - N/A   Clear
6:55 PM 17.6 °F -1.9 °F -5.8 °F 35% 30.01 in - SSE 29.9 mph - N/A   Clear
7:00 PM 18 °F - -5 °F 21%  in 19 mi SSE 29.9 mph - -  
7:55 PM 17.6 °F -2.5 °F -5.8 °F 35% 30.01 in - SSE 32.2 mph - N/A   Clear
9:55 PM 17.6 °F -1.3 °F -7.6 °F 32% 30.01 in - SSE 27.6 mph - N/A   Clear
10:00 PM 17 °F - -7 °F 19%  in 6 mi SSE 27.6 mph - -  
10:55 PM 15.8 °F -3.7 °F -7.6 °F 35% 30.01 in - SSE 27.6 mph - N/A   Clear